Location: Unspecified
(49.4641°N, 0.0000°E)
Time: 10:36:53
(UTC+00:00)

SL-16 DEB - Visible Passes

Search period start: 04 April 2026 00:00
Search period end: 14 April 2026 00:00
Orbit: 831 x 877 km, 70.9° (Epoch: 8 February)

Date Brightness Start Highest point End Pass type
(mag) Time Alt. Az. Time Alt. Az. Time Alt. Az.
4 Apr ? 19:31:20 10° NNW 19:36:58 60° ENE 19:42:16 12° SE visible
4 Apr ? 21:16:16 10° NW 21:20:55 26° WSW 21:24:22 15° SSW visible
5 Apr ? 19:19:53 10° NNW 19:25:31 61° ENE 19:31:12 10° SE visible
5 Apr ? 21:04:50 10° NW 21:09:27 26° WSW 21:13:47 11° SSW visible
6 Apr ? 19:08:26 10° NNW 19:14:05 62° ENE 19:19:46 10° SE visible
6 Apr ? 20:53:23 10° NW 20:58:00 26° WSW 21:02:38 10° SSW visible
7 Apr ? 20:41:57 10° NW 20:46:32 25° WSW 20:51:09 10° SSW visible
8 Apr ? 20:30:32 10° NW 20:35:05 25° WSW 20:39:40 10° SSW visible
9 Apr ? 20:19:06 10° NW 20:23:38 25° WSW 20:28:11 10° SSW visible
10 Apr ? 20:07:40 10° NW 20:12:10 24° WSW 20:16:42 10° SSW visible
11 Apr ? 19:56:14 10° NW 20:00:43 24° WSW 20:05:13 10° SSW visible
12 Apr ? 19:44:47 10° NW 19:49:15 24° WSW 19:53:44 10° SSW visible
13 Apr ? 19:33:21 10° NW 19:37:48 24° WSW 19:42:15 10° SSW visible
